Weather in Pinki

Latvia     56°56′50″N   23°54′40″E
temp.,
°C
wind,
m/s
gust,
m/s
humid.,
%
clouds,
%
prec.,
mm/h
press.,
hPa
HPBL,
m
14 april, wed
wed1400:00+3n127175 0.0 102279
03:00+3nw227263 0.0 102246
06:00+1wnw238827 0.0 102274
09:00+3nnw34775 0.0 1022287
12:00+4nnw3572100 0.0 1023421
15:00+4nnw4672100 0.0 1023421
18:00+4n61074100 0.0 1023349
21:00+3n61277100 0.0 1024324
15 april, thu
thu1500:00+4nne71276100 0.0 1024367
03:00+4nne51077100 0.0 1025357
06:00+4ne51076100 0.0 1025358
09:00+4nne6107391 0.0 1026420
12:00+7nne695872 0.0 1026757
15:00+8nne6104988 0.0 1025795
18:00+8nne6104895 0.0 1024802
21:00+6nne5115770 0.0 1025462
16 april, fri
fri1600:00+5nne6126396 0.0 1024477
03:00+4nne61168100 0.1 1024485
06:00+4ne51080100 0.4 1023474
09:00+5ne5979100 0.7 1023429
12:00+9ne576698 0.0 1023682
15:00+11nne5861100 0.0 1023705
18:00+11ne696078 0.0 1023884
21:00+8ene51072100 0.3 1025629
17 april, sat
sat1700:00+7ne4875100 0.0 1025335
03:00+6ne488158 0.0 1025226
06:00+6ene498262 0.0 1025222
09:00+7ene4873100 0.0 1026292
12:00+11ene466185 0.0 1026639
15:00+13e465652 0.0 10261007
18:00+13ene466082 0.0 1025970
21:00+12e486629 0.0 1026362
18 april, sun
sun1800:00+9ene477384 0.0 1027159
03:00+8ene3676100 0.0 1027144
06:00+8ene3676100 0.0 1027159
09:00+10e466737 0.0 1027273
12:00+13e354959 0.0 1027798
15:00+15e34438 0.0 10261196
18:00+15ese45405 0.0 10261333
21:00+11ese36542 0.0 1026138